Hourly Data Report for December 09, 2002

TORONTO CITY
ONTARIO

43°40'00.000" N
79°24'00.000" W
112.50 m
6158355
71508
XTO

Download Data

Hourly Data (December 2002)
Hourly Data Report for December 9, 2002
TIME
LST
Temp Definition
°C
Dew Point Definition
°C
Rel Hum Definition
%
Precip. Amount Definition
mm

Wind Dir Definition
10's deg

Wind Spd Definition
km/h
Visibility Definition
km
Stn Press Definition
kPa
Hmdx Definition


Wind Chill Definition


Weather Definition


00:00 -10.2 -16.0 62   LegendMM LegendMM LegendMM 102.02     LegendNANA
01:00 -10.3 -16.1 62   LegendMM LegendMM LegendMM 101.99     LegendNANA
02:00 -10.2 -15.8 63   LegendMM LegendMM LegendMM 101.98     LegendNANA
03:00 -10.2 -15.8 63   LegendMM LegendMM LegendMM 101.99     LegendNANA
04:00 -9.0 -14.1 66   LegendMM LegendMM LegendMM 101.91     LegendNANA
05:00 -9.1 -14.4 65   LegendMM LegendMM LegendMM 101.93     LegendNANA
06:00 -9.0 -15.0 62   LegendMM LegendMM LegendMM 101.94     LegendNANA
07:00 -8.7 -17.8 48   LegendMM LegendMM LegendMM 101.92     LegendNANA
08:00 -7.9 -16.4 50   LegendMM LegendMM LegendMM 101.93     LegendNANA
09:00 -6.7 -14.8 52   LegendMM LegendMM LegendMM 101.92     LegendNANA
10:00 -5.3 -12.8 56   LegendMM LegendMM LegendMM 101.90     LegendNANA
11:00 -4.2 -13.9 47   LegendMM LegendMM LegendMM 101.79     LegendNANA
12:00 -2.5 -14.0 41   LegendMM LegendMM LegendMM 101.64     LegendNANA
13:00 -1.1 -12.2 43   LegendMM LegendMM LegendMM 101.54     LegendNANA
14:00 -1.0 -11.0 47   LegendMM LegendMM LegendMM 101.43     LegendNANA
15:00 -1.2 -11.4 46   LegendMM LegendMM LegendMM 101.34     LegendNANA
16:00 -1.8 -10.4 52   LegendMM LegendMM LegendMM 101.30     LegendNANA
17:00 -2.6 -9.4 59   LegendMM LegendMM LegendMM 101.18     LegendNANA
18:00 -2.8 -8.7 64   LegendMM LegendMM LegendMM 101.13     LegendNANA
19:00 -2.5 -7.5 68   LegendMM LegendMM LegendMM 101.09     LegendNANA
20:00 -2.5 -7.5 68   LegendMM LegendMM LegendMM 101.08     LegendNANA
21:00 -2.8 -7.6 69   LegendMM LegendMM LegendMM 100.99     LegendNANA
22:00 -3.2 -7.6 72   LegendMM LegendMM LegendMM 100.95     LegendNANA
23:00 -3.9 -8.1 73   LegendMM LegendMM LegendMM 100.94     LegendNANA

Notes on Data Quality.

Legend

  • E = Estimated
  • M = Missing
  • NA = Not Available*
  • [empty] = Indicates an unobserved value
Date modified: